Wind_Speed
31 28 33 33 34 41 41 36 40 48 55 61 63 66 72 76 81 85 88 95 90 88 87 81 73 73 69 71 71 65 60 58 56 59 73 78 77 70 67 64 65 64 64
42 41 43 41 50 49 54 55 58 56 59 59 68 72 77 86 90 86 96 94 89 85 79 76 73 70 69 68 70 70 69 66 58 58 67 76 80 80 73 67 64 64 65
44 46 48 51 53 60 60 63 66 71 71 73 76 79 85 91 93 97 96 90 82 78 76 74 72 71 70 71 70 72 75 73 66 59 61 70 76 82 82 76 70 65 64
53 53 53 56 59 65 69 71 72 73 82 84 86 88 94 96 99 96 89 83 79 77 75 72 73 75 73 71 72 75 77 77 75 66 63 61 69 76 79 80 78 72 67
60 60 60 63 67 72 77 79 80 82 84 89 91 96 98 100 98 90 83 80 78 78 78 77 78 78 78 76 74 74 75 74 73 74 69 64 65 69 73 75 76 76 73
64 65 66 69 74 81 85 86 87 87 90 91 96 99 101 98 88 82 80 82 83 82 81 81 81 80 79 80 74 67 65 66 67 69 69 68 66 66 70 72 72 72 71
70 68 71 76 80 85 86 88 88 91 93 99 99 99 96 88 81 82 84 83 83 83 82 81 81 80 78 75 70 65 60 60 61 62 62 63 62 60 64 68 71 73 72
64 70 76 82 85 86 88 89 91 93 101 100 98 93 86 82 82 83 85 85 85 86 84 82 80 78 70 61 59 58 54 51 50 52 56 57 57 59 63 66 66 68 72
74 80 81 83 87 87 90 93 94 100 96 93 88 83 82 83 86 87 88 88 88 88 87 83 76 67 56 52 47 47 47 44 43 44 46 50 53 53 59 65 72 70 71
83 84 87 87 86 92 93 95 99 92 89 83 82 82 85 88 90 91 91 90 87 86 84 75 61 53 46 42 37 34 33 30 29 31 34 40 42 46 50 55 64 73 74
88 89 88 88 90 90 95 100 89 85 80 82 85 89 91 93 95 95 93 89 85 79 70 61 53 44 33 27 24 23 21 18 17 18 20 22 27 32 38 46 53 66 76
87 85 83 86 89 93 97 88 84 80 84 88 91 93 94 96 96 95 90 85 76 65 60 50 40 27 17 15 16 15 17 15 15 15 11 12 15 21 25 32 40 52 62
83 86 87 92 95 92 84 83 83 85 89 92 92 95 97 97 96 92 86 76 64 56 46 34 23 16 10 12 12 12 14 17 16 12 6 8 12 12 16 21 26 38 48
88 92 93 89 83 84 85 86 87 89 90 92 94 96 97 95 92 87 77 65 54 43 33 24 22 17 12 13 14 11 15 17 12 6 4 9 12 14 11 16 19 27 39
91 84 79 81 83 84 86 87 88 90 92 93 95 96 94 91 84 76 67 55 45 34 27 24 25 21 16 16 14 7 13 13 9 9 8 8 13 12 14 16 19 19 28
75 78 78 81 83 85 87 88 89 90 92 94 95 93 88 79 70 66 57 44 40 30 29 31 31 27 20 16 13 9 12 11 14 10 7 13 8 12 16 18 13 17 22
77 78 83 86 87 87 91 92 92 91 94 95 94 87 77 67 60 56 51 39 35 29 32 35 36 34 25 19 18 14 14 14 14 11 13 10 13 11 9 14 15 17 22
81 83 90 91 91 91 92 93 93 94 96 93 86 77 67 57 53 51 47 36 32 29 38 37 39 33 28 22 24 20 16 15 20 12 10 13 11 9 12 15 16 13 17
87 92 97 94 93 92 92 92 92 93 90 86 75 64 57 52 48 46 40 33 31 33 42 39 39 35 34 30 30 26 20 15 17 18 11 10 4 15 11 13 7 8 15
93 97 101 99 98 95 94 92 91 88 84 75 68 59 52 44 37 36 30 27 28 34 42 43 39 40 33 33 28 26 23 22 21 17 12 13 14 7 10 10 10 8 10
97 101 102 102 99 94 91 90 86 82 73 67 60 54 46 37 28 23 20 21 25 36 42 43 42 39 36 35 35 30 27 24 23 20 21 15 19 17 14 8 3 12 5
101 102 100 100 96 91 88 84 80 70 63 59 54 48 40 31 22 15 13 16 23 38 42 45 43 41 36 29 32 32 31 31 28 28 24 19 18 19 13 14 11 8 13
101 101 102 96 95 89 82 77 68 61 56 54 48 41 34 25 19 14 8 15 17 39 43 45 44 42 39 33 30 27 30 34 33 31 28 25 21 21 19 21 18 19 16
104 104 97 97 89 79 75 65 59 52 50 49 42 38 28 21 15 16 13 14 19 36 45 46 49 46 42 40 36 31 32 33 38 37 33 31 29 27 25 26 22 22 25
103 105 100 89 78 75 64 57 51 46 45 43 38 35 29 22 16 15 13 16 17 24 45 47 50 52 50 48 46 44 40 38 38 42 42 39 36 37 35 32 31 31 32
103 95 87 79 73 61 56 50 44 43 42 39 35 33 30 25 20 18 17 17 19 21 37 50 51 51 52 53 52 50 46 43 39 39 46 49 46 44 44 43 43 39 39
Wind_Direction
317 325 327 323 313 318 321 318 297 296 292 292 306 308 307 307 308 307 305 305 306 305 304 302 300 296 295 291 288 285 279 272 263 257 253 255 252 248 247 246 246 247 248
312 312 318 319 323 323 317 317 314 311 311 312 308 310 309 310 309 307 309 308 307 306 304 302 299 298 295 290 287 284 281 279 271 256 256 252 253 252 246 246 244 244 246
306 310 315 316 320 318 316 318 313 318 319 316 314 311 311 311 309 308 308 307 306 304 302 302 300 298 294 290 286 283 281 278 274 266 254 255 253 251 249 245 244 241 240
314 311 307 310 312 315 316 317 316 305 315 316 314 313 312 310 309 309 307 306 305 304 305 303 300 297 294 291 287 282 279 278 276 271 264 257 256 254 250 248 244 242 239
309 308 307 307 310 316 318 316 314 313 312 311 312 311 310 310 309 307 306 304 306 307 305 303 302 300 297 294 288 284 280 277 275 272 267 260 255 254 253 250 247 243 239
304 305 305 308 315 317 315 314 314 313 311 310 309 309 308 307 307 306 305 307 307 305 304 303 302 302 299 296 291 285 281 277 274 271 268 264 258 254 252 249 247 245 239
303 304 309 313 313 311 310 309 308 307 308 308 307 308 308 308 308 309 309 308 307 305 304 304 303 302 300 298 295 289 282 276 273 270 267 263 259 252 249 247 245 243 242
302 305 306 306 306 306 305 304 303 304 309 310 310 310 309 309 309 311 310 309 308 307 307 306 305 303 301 297 294 293 288 283 277 272 267 262 258 252 244 244 244 241 241
301 303 302 302 301 301 304 304 307 310 311 311 310 310 312 310 309 308 309 310 309 308 308 307 306 304 303 300 297 293 291 288 281 274 269 265 258 251 246 240 240 240 238
303 302 301 302 303 306 307 308 313 314 313 311 310 310 309 308 309 310 311 311 310 309 309 308 306 304 303 299 297 295 295 298 290 281 273 267 262 255 248 242 238 235 234
303 304 306 306 307 308 310 314 313 311 310 310 310 311 312 313 312 312 312 312 312 310 307 306 305 303 301 299 300 299 303 300 288 279 273 269 262 258 250 243 237 233 229
305 307 307 306 308 312 313 312 312 310 310 311 312 313 313 313 312 311 311 311 312 308 306 304 298 294 291 294 295 296 298 297 285 286 284 271 264 261 257 250 240 235 230
304 308 308 308 312 313 312 312 312 310 310 311 312 313 312 312 311 311 311 312 311 306 303 294 274 263 264 264 277 285 299 292 288 289 300 302 288 278 267 257 246 237 230
307 309 311 313 314 314 312 312 311 310 310 311 312 312 312 312 310 310 310 310 306 301 294 264 252 240 236 255 255 277 292 293 283 269 292 276 291 286 272 276 261 240 229
311 314 316 316 316 315 313 312 312 311 312 312 312 311 311 310 310 307 306 307 300 293 274 241 239 227 225 243 252 263 284 287 247 263 265 304 299 286 265 258 275 263 234
312 316 317 318 315 314 314 312 311 311 312 312 311 311 311 309 306 303 302 301 293 279 255 230 234 222 217 235 236 230 281 262 246 259 262 296 299 297 275 283 272 259 235
316 318 320 319 318 317 316 315 313 312 312 312 313 313 310 308 303 297 297 294 282 262 241 230 231 228 219 220 227 224 260 244 238 258 274 290 289 287 314 303 293 261 232
314 318 320 320 319 318 318 317 315 314 313 314 314 313 311 307 299 293 291 285 270 248 232 232 227 228 213 216 228 221 230 244 233 232 260 284 283 247 268 300 307 266 233
318 319 322 322 320 318 318 317 315 314 314 316 315 316 313 307 298 290 286 274 259 238 229 234 227 227 221 218 225 219 217 237 235 234 239 259 227 327 263 302 322 267 232
317 319 321 322 320 318 317 316 316 316 318 319 320 323 319 313 302 292 283 267 252 235 227 235 230 230 226 222 237 227 219 231 241 233 225 238 241 271 298 314 22 351 238
317 320 320 319 318 317 317 318 318 319 320 321 326 328 330 328 316 298 278 258 248 227 224 233 238 238 232 227 235 239 231 232 238 244 231 240 239 249 278 279 16 315 296
317 318 318 318 318 318 318 319 319 320 322 324 329 334 337 336 329 311 284 252 235 222 223 233 236 243 252 235 239 240 240 231 235 238 240 240 245 246 249 241 191 215 281
314 317 318 318 319 318 318 318 320 321 324 326 331 336 338 343 342 328 292 234 255 225 224 233 241 243 248 253 234 235 235 231 230 232 235 236 232 238 235 227 221 229 209
315 318 318 319 317 317 317 319 320 321 323 325 330 333 338 337 341 341 289 279 273 228 223 232 244 246 250 258 259 251 233 235 236 234 232 237 228 223 238 233 220 226 193
315 317 316 316 315 316 317 318 318 320 322 324 327 330 331 329 324 320 308 278 285 251 224 231 241 250 250 250 256 262 262 245 243 240 235 230 228 224 222 230 233 222 223
316 316 314 314 316 316 316 317 317 318 320 322 322 325 325 322 319 313 297 297 287 275 240 233 239 248 256 260 258 260 264 262 250 245 240 234 227 229 226 227 226 231 229
Height
10944 10941 10937 10933 10927 10921 10918 10914 10912 10906 10900 10894 10885 10876 10869 10861 10851 10841 10829 10819 10808 10794 10784 10774 10768 10761 10754 10747 10744 10744 10747 10746 10753 10749 10745 10741 10748 10761 10770 10780 10787 10793 10800
10935 10930 10924 10921 10915 10911 10906 10900 10895 10891 10884 10875 10869 10860 10851 10841 10830 10819 10807 10793 10782 10771 10762 10755 10748 10740 10734 10728 10724 10722 10722 10723 10730 10735 10726 10724 10726 10729 10744 10757 10767 10775 10780
10926 10921 10915 10911 10905 10900 10894 10886 10878 10868 10860 10854 10847 10839 10831 10819 10808 10796 10781 10769 10758 10750 10742 10735 10725 10719 10713 10706 10703 10701 10696 10696 10700 10706 10708 10703 10703 10705 10713 10729 10742 10755 10764
10911 10909 10906 10900 10895 10887 10880 10870 10862 10852 10843 10833 10826 10817 10807 10797 10785 10772 10760 10748 10738 10730 10720 10710 10702 10695 10691 10687 10681 10675 10671 10669 10669 10675 10681 10686 10682 10680 10690 10700 10715 10731 10744
10900 10895 10890 10886 10879 10870 10859 10851 10845 10837 10828 10819 10807 10799 10789 10775 10762 10750 10740 10729 10718 10706 10696 10686 10679 10672 10665 10660 10657 10651 10644 10642 10642 10645 10651 10658 10661 10661 10665 10675 10689 10702 10720
10891 10884 10877 10869 10858 10849 10843 10835 10828 10820 10812 10805 10795 10783 10769 10753 10741 10729 10718 10704 10693 10685 10676 10666 10658 10649 10640 10630 10625 10624 10620 10616 10615 10616 10621 10627 10635 10640 10642 10653 10666 10677 10695
10876 10868 10859 10850 10846 10840 10832 10824 10817 10806 10798 10788 10775 10759 10742 10728 10716 10705 10695 10685 10674 10662 10654 10647 10636 10625 10614 10604 10595 10592 10593 10593 10592 10593 10596 10600 10608 10616 10625 10632 10643 10655 10668
10862 10855 10850 10844 10837 10828 10821 10814 10804 10791 10778 10760 10743 10730 10719 10708 10697 10685 10675 10665 10653 10639 10629 10620 10610 10600 10591 10585 10577 10571 10568 10569 10571 10570 10572 10576 10584 10595 10604 10612 10622 10632 10644
10853 10847 10841 10834 10825 10815 10805 10794 10779 10765 10750 10736 10723 10709 10698 10688 10678 10667 10656 10642 10629 10612 10600 10590 10583 10575 10570 10563 10561 10555 10553 10553 10552 10553 10554 10556 10563 10571 10579 10592 10597 10612 10624
10836 10828 10821 10812 10800 10790 10778 10764 10750 10736 10723 10713 10702 10692 10682 10667 10653 10640 10628 10617 10606 10590 10573 10565 10563 10558 10555 10551 10548 10546 10545 10543 10541 10540 10541 10544 10549 10553 10560 10570 10579 10590 10603
10812 10803 10793 10782 10772 10762 10752 10740 10729 10718 10705 10694 10682 10668 10654 10639 10623 10611 10601 10591 10581 10568 10556 10549 10546 10544 10542 10541 10541 10540 10538 10537 10535 10534 10535 10537 10538 10539 10543 10549 10557 10563 10579
10790 10782 10773 10764 10755 10744 10731 10717 10708 10694 10681 10668 10655 10640 10629 10614 10601 10589 10579 10570 10561 10549 10541 10536 10534 10534 10536 10537 10537 10536 10535 10533 10531 10532 10532 10531 10531 10532 10533 10536 10541 10546 10557
10772 10764 10754 10743 10734 10722 10709 10698 10686 10674 10660 10648 10636 10620 10607 10593 10578 10567 10557 10549 10542 10535 10531 10528 10528 10530 10532 10534 10534 10534 10532 10530 10528 10528 10528 10528 10527 10528 10527 10528 10530 10534 10543
10753 10743 10732 10719 10711 10700 10688 10679 10668 10655 10643 10630 10616 10601 10586 10573 10557 10546 10538 10534 10528 10524 10523 10522 10524 10526 10527 10529 10529 10528 10528 10526 10526 10527 10526 10526 10525 10524 10522 10522 10524 10527 10534
10733 10721 10711 10701 10690 10682 10670 10659 10648 10636 10623 10609 10596 10581 10568 10551 10539 10528 10524 10521 10516 10515 10514 10515 10517 10519 10520 10522 10523 10525 10525 10524 10524 10523 10524 10524 10523 10522 10520 10520 10521 10523 10528
10719 10709 10700 10690 10677 10664 10653 10642 10631 10617 10604 10590 10576 10562 10549 10537 10523 10511 10509 10507 10503 10504 10504 10507 10508 10510 10512 10515 10519 10520 10522 10522 10521 10521 10522 10522 10520 10519 10518 10518 10516 10518 10520
10705 10696 10687 10676 10663 10649 10633 10619 10606 10595 10581 10568 10552 10539 10527 10517 10506 10496 10493 10493 10491 10492 10494 10497 10500 10501 10505 10509 10512 10515 10517 10517 10518 10520 10520 10518 10517 10516 10513 10515 10513 10513 10515
10693 10683 10672 10659 10646 10631 10617 10602 10586 10571 10555 10542 10531 10515 10505 10497 10487 10479 10477 10478 10478 10480 10483 10487 10490 10495 10499 10502 10506 10509 10511 10513 10515 10517 10517 10516 10515 10515 10512 10512 10510 10508 10511
10675 10663 10652 10642 10628 10614 10601 10587 10570 10555 10537 10523 10508 10499 10486 10477 10468 10461 10462 10463 10464 10468 10471 10476 10483 10488 10492 10496 10499 10502 10508 10510 10511 10513 10513 10514 10513 10514 10511 10508 10507 10507 10508
10658 10644 10630 10621 10609 10595 10582 10569 10553 10536 10520 10505 10492 10482 10470 10460 10452 10448 10449 10450 10453 10457 10464 10467 10475 10480 10487 10492 10497 10502 10506 10507 10508 10510 10511 10511 10511 10509 10509 10508 10506 10507 10508
10640 10626 10613 10601 10590 10577 10563 10550 10534 10519 10506 10492 10483 10471 10459 10450 10443 10440 10441 10443 10446 10450 10457 10462 10468 10474 10480 10485 10491 10496 10500 10502 10504 10506 10507 10507 10506 10508 10508 10508 10506 10508 10507
10624 10612 10600 10584 10571 10560 10546 10533 10520 10508 10496 10485 10477 10466 10457 10448 10442 10439 10439 10439 10442 10447 10454 10457 10463 10467 10472 10481 10484 10488 10491 10495 10497 10500 10502 10503 10504 10505 10505 10506 10507 10510 10510
10606 10594 10583 10567 10554 10542 10530 10520 10508 10498 10487 10479 10471 10464 10455 10449 10444 10440 10439 10441 10442 10445 10452 10453 10457 10462 10466 10471 10477 10480 10483 10485 10488 10492 10495 10497 10500 10501 10502 10502 10504 10505 10507
10586 10575 10563 10552 10538 10528 10517 10508 10499 10489 10481 10473 10467 10460 10454 10449 10445 10442 10441 10441 10440 10442 10448 10451 10450 10455 10459 10462 10465 10470 10474 10476 10479 10482 10485 10489 10493 10495 10496 10497 10498 10499 10501
10565 10555 10545 10535 10525 10514 10504 10497 10489 10482 10475 10468 10462 10456 10452 10448 10444 10442 10440 10438 10437 10437 10443 10444 10444 10445 10449 10453 10456 10458 10461 10464 10467 10469 10473 10477 10481 10485 10488 10489 10491 10493 10495
10547 10537 10526 10517 10511 10500 10493 10487 10480 10474 10469 10463 10457 10453 10449 10445 10442 10440 10437 10436 10434 10434 10435 10436 10436 10435 10436 10439 10443 10446 10447 10450 10452 10455 10458 10462 10466 10470 10474 10477 10479 10482 10483